TimeCDT,TemperatureF,Dew PointF,Humidity,Sea Level PressureIn,VisibilityMPH,Wind Direction,Wind SpeedMPH,Gust SpeedMPH,PrecipitationIn,Events,Conditions,WindDirDegrees,DateUTC
12:52 AM,37.9,36.0,93,29.69,10.0,Calm,Calm,-,N/A,,Clear,0,2013-11-01 05:52:00
1:52 AM,37.9,35.1,89,29.71,10.0,Calm,Calm,-,N/A,,Clear,0,2013-11-01 06:52:00
2:52 AM,37.9,35.1,89,29.72,9.0,NW,3.5,-,N/A,,Clear,310,2013-11-01 07:52:00
3:52 AM,43.0,37.0,80,29.72,10.0,NW,3.5,-,N/A,,Clear,320,2013-11-01 08:52:00
4:52 AM,39.9,36.0,86,29.73,10.0,NNW,5.8,-,N/A,,Clear,340,2013-11-01 09:52:00
5:52 AM,41.0,36.0,82,29.74,10.0,NNW,4.6,-,N/A,,Clear,330,2013-11-01 10:52:00
6:52 AM,37.9,35.1,89,29.76,10.0,Calm,Calm,-,N/A,,Clear,0,2013-11-01 11:52:00
7:52 AM,37.0,34.0,89,29.78,10.0,WNW,3.5,-,N/A,,Clear,290,2013-11-01 12:52:00
8:52 AM,46.0,37.9,73,29.81,10.0,WNW,11.5,-,N/A,,Clear,300,2013-11-01 13:52:00
9:52 AM,50.0,41.0,71,29.83,10.0,WNW,11.5,-,N/A,,Clear,290,2013-11-01 14:52:00
10:52 AM,54.0,41.0,62,29.84,10.0,WNW,10.4,-,N/A,,Mostly Cloudy,300,2013-11-01 15:52:00
11:52 AM,57.0,42.1,57,29.85,10.0,NW,12.7,-,N/A,,Partly Cloudy,310,2013-11-01 16:52:00
12:52 PM,57.9,39.9,51,29.86,10.0,WNW,13.8,-,N/A,,Overcast,300,2013-11-01 17:52:00
1:52 PM,60.1,39.9,47,29.85,10.0,NW,15.0,-,N/A,,Clear,310,2013-11-01 18:52:00
2:52 PM,61.0,39.9,46,29.85,10.0,NW,19.6,29.9,N/A,,Scattered Clouds,310,2013-11-01 19:52:00
3:52 PM,62.1,39.9,44,29.85,10.0,NW,13.8,-,N/A,,Partly Cloudy,320,2013-11-01 20:52:00
4:52 PM,61.0,37.9,42,29.87,10.0,NW,13.8,-,N/A,,Partly Cloudy,310,2013-11-01 21:52:00
5:52 PM,57.9,39.0,49,29.88,10.0,NW,11.5,-,N/A,,Partly Cloudy,320,2013-11-01 22:52:00
6:52 PM,53.1,39.0,59,29.91,10.0,West,6.9,-,N/A,,Mostly Cloudy,280,2013-11-01 23:52:00
7:52 PM,54.0,37.9,55,29.94,10.0,West,12.7,-,N/A,,Clear,270,2013-11-02 00:52:00
8:22 PM,54.0,37.9,55,29.97,10.0,NW,24.2,38.0,N/A,,Mostly Cloudy,310,2013-11-02 01:22:00
8:52 PM,50.0,41.0,71,29.97,10.0,West,11.5,-,0.01,,Mostly Cloudy,280,2013-11-02 01:52:00
9:52 PM,45.0,39.9,82,29.99,10.0,NW,6.9,-,N/A,,Clear,320,2013-11-02 02:52:00
10:52 PM,45.0,39.0,80,30.01,10.0,WNW,5.8,-,N/A,,Clear,290,2013-11-02 03:52:00
11:52 PM,46.9,37.9,71,30.02,10.0,NW,15.0,-,N/A,,Clear,310,2013-11-02 04:52:00